Year,Month,Day,Hour,Minute,Value (Times are PST for windgust in km/hr)
2015,08,31,00,13,1.60
2015,08,31,00,16,1.60
2015,08,31,00,17,3.20
2015,08,31,00,18,4.80
2015,08,31,00,19,4.80
2015,08,31,00,21,1.60
2015,08,31,00,23,3.20
2015,08,31,00,24,4.80
2015,08,31,00,25,1.60
2015,08,31,00,46,1.60
2015,08,31,01,01,4.80
2015,08,31,01,02,4.80
2015,08,31,01,03,4.80
2015,08,31,01,04,1.60
2015,08,31,01,08,1.60
2015,08,31,01,13,1.60
2015,08,31,01,14,3.20
2015,08,31,01,15,4.80
2015,08,31,01,16,3.20
2015,08,31,01,17,6.40
2015,08,31,01,18,6.40
2015,08,31,01,19,6.40
2015,08,31,01,20,4.80
2015,08,31,01,21,1.60
2015,08,31,01,22,4.80
2015,08,31,01,23,4.80
2015,08,31,01,24,4.80
2015,08,31,01,25,6.40
2015,08,31,01,26,4.80
2015,08,31,01,27,3.20
2015,08,31,01,28,1.60
2015,08,31,01,29,3.20
2015,08,31,01,30,3.20
2015,08,31,01,31,3.20
2015,08,31,01,32,1.60
2015,08,31,01,35,3.20
2015,08,31,01,36,4.80
2015,08,31,01,37,4.80
2015,08,31,01,38,4.80
2015,08,31,01,39,4.80
2015,08,31,01,40,3.20
2015,08,31,01,41,3.20
2015,08,31,01,42,3.20
2015,08,31,01,43,3.20
2015,08,31,01,44,6.40
2015,08,31,01,45,3.20
2015,08,31,01,46,6.40
2015,08,31,01,47,8.10
2015,08,31,01,48,4.80
2015,08,31,01,49,3.20
2015,08,31,01,51,1.60
2015,08,31,01,53,1.60
2015,08,31,02,11,3.20
2015,08,31,02,12,4.80
2015,08,31,02,13,4.80
2015,08,31,02,14,6.40
2015,08,31,02,15,6.40
2015,08,31,02,16,4.80
2015,08,31,02,17,3.20
2015,08,31,02,18,1.60
2015,08,31,02,19,3.20
2015,08,31,02,29,1.60
2015,08,31,02,30,1.60
2015,08,31,02,31,4.80
2015,08,31,02,32,1.60
2015,08,31,02,33,3.20
2015,08,31,02,34,3.20
2015,08,31,02,35,1.60
2015,08,31,02,36,1.60
2015,08,31,02,37,1.60
2015,08,31,02,39,1.60
2015,08,31,02,42,1.60
2015,08,31,02,53,1.60
2015,08,31,03,00,1.60
2015,08,31,03,04,3.20
2015,08,31,03,05,3.20
2015,08,31,03,06,3.20
2015,08,31,03,07,3.20
2015,08,31,03,08,4.80
2015,08,31,03,11,1.60
2015,08,31,03,35,1.60
2015,08,31,03,39,1.60
2015,08,31,03,41,4.80
2015,08,31,03,42,3.20
2015,08,31,03,43,1.60
2015,08,31,03,44,3.20
2015,08,31,03,45,1.60
2015,08,31,03,48,4.80
2015,08,31,03,50,3.20
2015,08,31,03,51,1.60
2015,08,31,03,52,3.20
2015,08,31,03,53,4.80
2015,08,31,03,57,3.20
2015,08,31,03,59,1.60
2015,08,31,04,00,4.80
2015,08,31,04,03,1.60
2015,08,31,04,06,3.20
2015,08,31,04,07,3.20
2015,08,31,04,08,1.60
2015,08,31,04,09,4.80
2015,08,31,04,10,4.80
2015,08,31,04,11,4.80
2015,08,31,04,12,1.60
2015,08,31,04,13,3.20
2015,08,31,04,18,1.60
2015,08,31,04,23,1.60
2015,08,31,04,24,8.10
2015,08,31,04,25,4.80
2015,08,31,04,26,1.60
2015,08,31,04,27,3.20
2015,08,31,04,28,6.40
2015,08,31,04,29,6.40
2015,08,31,04,30,3.20
2015,08,31,04,31,1.60
2015,08,31,04,32,3.20
2015,08,31,04,34,1.60
2015,08,31,04,37,1.60
2015,08,31,04,38,1.60
2015,08,31,04,39,1.60
2015,08,31,04,41,1.60
2015,08,31,04,43,3.20
2015,08,31,04,44,1.60
2015,08,31,04,46,1.60
2015,08,31,04,56,1.60
2015,08,31,04,58,1.60
2015,08,31,05,01,4.80
2015,08,31,05,02,3.20
2015,08,31,05,05,1.60
2015,08,31,05,06,4.80
2015,08,31,05,07,1.60
2015,08,31,05,08,3.20
2015,08,31,05,14,1.60
2015,08,31,05,24,1.60
2015,08,31,05,25,1.60
2015,08,31,05,26,1.60
2015,08,31,05,28,1.60
2015,08,31,05,29,1.60
2015,08,31,05,34,1.60
2015,08,31,05,39,3.20
2015,08,31,05,40,3.20
2015,08,31,05,41,1.60
2015,08,31,05,42,4.80
2015,08,31,05,44,4.80
2015,08,31,05,46,3.20
2015,08,31,05,47,3.20
2015,08,31,05,48,6.40
2015,08,31,05,49,3.20
2015,08,31,05,50,1.60
2015,08,31,05,51,1.60
2015,08,31,05,52,1.60
2015,08,31,05,53,1.60
2015,08,31,05,54,6.40
2015,08,31,05,55,8.10
2015,08,31,05,57,1.60
2015,08,31,05,58,6.40
2015,08,31,05,59,3.20
2015,08,31,06,00,4.80
2015,08,31,06,03,1.60
2015,08,31,06,04,1.60
2015,08,31,06,05,4.80
2015,08,31,07,06,11.30
2015,08,31,07,07,6.40
2015,08,31,07,08,4.80
2015,08,31,07,09,6.40
2015,08,31,07,10,6.40
2015,08,31,07,11,8.10
2015,08,31,07,12,4.80
2015,08,31,07,13,6.40
2015,08,31,07,14,6.40
2015,08,31,07,15,1.60
2015,08,31,07,16,4.80
2015,08,31,07,17,4.80
2015,08,31,07,18,6.40
2015,08,31,07,19,3.20
2015,08,31,07,20,1.60
2015,08,31,07,21,3.20
2015,08,31,07,22,1.60
2015,08,31,07,23,6.40
2015,08,31,07,25,6.40
2015,08,31,07,26,6.40
2015,08,31,07,27,6.40
2015,08,31,07,28,4.80
2015,08,31,07,29,4.80
2015,08,31,07,30,4.80
2015,08,31,07,31,4.80
2015,08,31,07,32,4.80
2015,08,31,07,33,6.40
2015,08,31,07,34,4.80
2015,08,31,07,35,4.80
2015,08,31,07,36,4.80
2015,08,31,07,37,3.20
2015,08,31,07,39,1.60
2015,08,31,07,40,1.60
2015,08,31,07,41,4.80
2015,08,31,07,42,3.20
2015,08,31,07,43,8.10
2015,08,31,07,44,8.10
2015,08,31,07,45,4.80
2015,08,31,07,46,6.40
2015,08,31,07,47,8.10
2015,08,31,07,48,4.80
2015,08,31,07,49,3.20
2015,08,31,07,50,4.80
2015,08,31,07,51,8.10
2015,08,31,07,52,11.30
2015,08,31,07,53,9.60
2015,08,31,07,54,9.60
2015,08,31,07,55,4.80
2015,08,31,07,56,6.40
2015,08,31,07,57,8.10
2015,08,31,07,58,6.40
2015,08,31,07,59,12.90
2015,08,31,08,00,6.40
2015,08,31,08,01,8.10
2015,08,31,08,02,6.40
2015,08,31,08,03,3.20
2015,08,31,08,04,4.80
2015,08,31,08,05,3.20
2015,08,31,08,06,4.80
2015,08,31,08,07,4.80
2015,08,31,08,08,4.80
2015,08,31,08,09,6.40
2015,08,31,08,10,6.40
2015,08,31,08,11,6.40
2015,08,31,08,12,9.60
2015,08,31,08,13,6.40
2015,08,31,08,14,11.30
2015,08,31,08,15,8.10
2015,08,31,08,16,8.10
2015,08,31,08,17,6.40
2015,08,31,08,18,11.30
2015,08,31,08,19,11.30
2015,08,31,08,20,6.40
2015,08,31,08,21,9.60
2015,08,31,08,22,6.40
2015,08,31,08,23,8.10
2015,08,31,08,24,11.30
2015,08,31,08,25,8.10
2015,08,31,08,26,6.40
2015,08,31,08,27,11.30
2015,08,31,08,28,6.40
2015,08,31,08,29,1.60
2015,08,31,08,30,4.80
2015,08,31,08,31,4.80
2015,08,31,08,32,1.60
2015,08,31,08,33,3.20
2015,08,31,08,35,4.80
2015,08,31,08,36,4.80
2015,08,31,08,38,6.40
2015,08,31,08,39,4.80
2015,08,31,08,40,1.60
2015,08,31,08,41,1.60
2015,08,31,08,42,4.80
2015,08,31,08,43,1.60
2015,08,31,08,45,1.60
2015,08,31,08,48,1.60
2015,08,31,08,49,1.60
2015,08,31,08,50,4.80
2015,08,31,08,51,4.80
2015,08,31,08,52,4.80
2015,08,31,08,54,4.80
2015,08,31,08,55,1.60
2015,08,31,08,56,1.60
2015,08,31,08,59,1.60
2015,08,31,09,00,4.80
2015,08,31,09,01,1.60
2015,08,31,09,02,3.20
2015,08,31,09,03,3.20
2015,08,31,09,04,1.60
2015,08,31,09,05,4.80
2015,08,31,09,06,6.40
2015,08,31,09,08,3.20
2015,08,31,09,09,3.20
2015,08,31,09,10,4.80
2015,08,31,09,11,6.40
2015,08,31,09,12,8.10
2015,08,31,09,13,3.20
2015,08,31,09,14,6.40
2015,08,31,09,15,4.80
2015,08,31,09,16,4.80
2015,08,31,09,17,8.10
2015,08,31,09,18,6.40
2015,08,31,09,19,4.80
2015,08,31,09,20,4.80
2015,08,31,09,21,6.40
2015,08,31,09,22,6.40
2015,08,31,09,23,4.80
2015,08,31,09,24,1.60
2015,08,31,09,30,3.20
2015,08,31,09,31,6.40
2015,08,31,09,32,4.80
2015,08,31,09,37,1.60
2015,08,31,09,38,1.60
2015,08,31,09,39,4.80
2015,08,31,09,40,3.20
2015,08,31,09,41,1.60
2015,08,31,09,42,3.20
2015,08,31,09,43,6.40
2015,08,31,09,44,6.40
2015,08,31,09,45,3.20
2015,08,31,09,46,8.10
2015,08,31,09,47,1.60
2015,08,31,09,48,1.60
2015,08,31,09,49,1.60
2015,08,31,09,51,4.80
2015,08,31,09,52,3.20
2015,08,31,09,54,4.80
2015,08,31,09,55,4.80
2015,08,31,09,56,1.60
2015,08,31,09,57,4.80
2015,08,31,09,58,3.20
2015,08,31,09,59,1.60
2015,08,31,10,00,1.60
2015,08,31,10,01,3.20
2015,08,31,10,02,1.60
2015,08,31,10,05,1.60
2015,08,31,10,06,3.20
2015,08,31,10,07,3.20
2015,08,31,10,08,4.80
2015,08,31,10,09,3.20
2015,08,31,10,10,4.80
2015,08,31,10,11,1.60
2015,08,31,10,12,3.20
2015,08,31,10,14,1.60
2015,08,31,10,21,1.60
2015,08,31,10,25,1.60
2015,08,31,10,27,1.60
2015,08,31,10,28,3.20
2015,08,31,10,29,3.20
2015,08,31,10,30,4.80
2015,08,31,10,31,4.80
2015,08,31,10,32,4.80
2015,08,31,10,33,1.60
2015,08,31,10,34,1.60
2015,08,31,10,35,1.60
2015,08,31,10,38,1.60
2015,08,31,10,42,1.60
2015,08,31,10,51,1.60
2015,08,31,10,55,1.60
2015,08,31,11,00,1.60
2015,08,31,11,02,1.60
2015,08,31,11,03,1.60
2015,08,31,11,05,1.60
2015,08,31,11,06,1.60
2015,08,31,11,07,1.60
2015,08,31,11,10,1.60
2015,08,31,11,12,1.60
2015,08,31,11,13,3.20
2015,08,31,11,14,1.60
2015,08,31,11,15,3.20
2015,08,31,11,17,1.60
2015,08,31,11,19,4.80
2015,08,31,11,20,3.20
2015,08,31,11,21,4.80
2015,08,31,11,22,3.20
2015,08,31,11,23,6.40
2015,08,31,11,24,4.80
2015,08,31,11,25,4.80
2015,08,31,11,26,4.80
2015,08,31,11,27,6.40
2015,08,31,11,28,4.80
2015,08,31,11,29,4.80
2015,08,31,11,30,3.20
2015,08,31,11,31,4.80
2015,08,31,11,33,1.60
2015,08,31,11,37,3.20
2015,08,31,11,38,1.60
2015,08,31,11,39,1.60
2015,08,31,11,41,1.60
2015,08,31,11,42,1.60
2015,08,31,11,43,1.60
2015,08,31,11,44,3.20
2015,08,31,11,45,1.60
2015,08,31,11,46,3.20
2015,08,31,11,47,4.80
2015,08,31,11,48,3.20
2015,08,31,11,49,1.60
2015,08,31,11,50,1.60
2015,08,31,11,51,1.60
2015,08,31,11,52,1.60
2015,08,31,11,53,6.40
2015,08,31,11,54,6.40
2015,08,31,11,55,1.60
2015,08,31,11,56,4.80
2015,08,31,11,57,3.20
2015,08,31,11,58,3.20
2015,08,31,11,59,6.40
2015,08,31,12,00,8.10
2015,08,31,12,01,8.10
2015,08,31,12,02,3.20
2015,08,31,12,03,1.60
2015,08,31,12,05,3.20
2015,08,31,12,06,4.80
2015,08,31,12,07,8.10
2015,08,31,12,08,9.60
2015,08,31,12,09,8.10
2015,08,31,12,10,8.10
2015,08,31,12,11,6.40
2015,08,31,12,12,4.80
2015,08,31,12,13,4.80
2015,08,31,12,14,1.60
2015,08,31,12,15,4.80
2015,08,31,12,16,4.80
2015,08,31,12,17,4.80
2015,08,31,12,18,3.20
2015,08,31,12,19,8.10
2015,08,31,12,20,8.10
2015,08,31,12,21,8.10
2015,08,31,12,22,9.60
2015,08,31,12,23,11.30
2015,08,31,12,24,8.10
2015,08,31,12,25,9.60
2015,08,31,12,26,1.60
2015,08,31,12,27,1.60
2015,08,31,12,28,6.40
2015,08,31,12,29,8.10
2015,08,31,12,30,4.80
2015,08,31,12,31,4.80
2015,08,31,12,32,6.40
2015,08,31,12,33,6.40
2015,08,31,12,34,1.60
2015,08,31,12,36,6.40
2015,08,31,12,37,1.60
2015,08,31,12,38,1.60
2015,08,31,12,39,1.60
2015,08,31,12,40,9.60
2015,08,31,12,41,4.80
2015,08,31,12,42,4.80
2015,08,31,12,43,4.80
2015,08,31,12,44,6.40
2015,08,31,12,45,6.40
2015,08,31,12,46,1.60
2015,08,31,12,47,1.60
2015,08,31,12,48,1.60
2015,08,31,12,49,4.80
2015,08,31,12,50,6.40
2015,08,31,12,51,4.80
2015,08,31,12,52,6.40
2015,08,31,12,53,3.20
2015,08,31,12,55,1.60
2015,08,31,12,56,1.60
2015,08,31,12,57,1.60
2015,08,31,12,58,1.60
2015,08,31,12,59,1.60
2015,08,31,13,00,3.20
2015,08,31,13,01,4.80
2015,08,31,13,02,6.40
2015,08,31,13,03,6.40
2015,08,31,13,04,6.40
2015,08,31,13,05,6.40
2015,08,31,13,06,8.10
2015,08,31,13,07,4.80
2015,08,31,13,08,6.40
2015,08,31,13,09,4.80
2015,08,31,13,10,3.20
2015,08,31,13,11,8.10
2015,08,31,13,12,9.60
2015,08,31,13,13,8.10
2015,08,31,13,14,6.40
2015,08,31,13,15,1.60
2015,08,31,13,16,4.80
2015,08,31,13,17,1.60
2015,08,31,13,19,3.20
2015,08,31,13,20,3.20
2015,08,31,13,21,6.40
2015,08,31,13,22,4.80
2015,08,31,13,23,8.10
2015,08,31,13,24,8.10
2015,08,31,13,25,8.10
2015,08,31,13,26,3.20
2015,08,31,13,28,6.40
2015,08,31,13,29,8.10
2015,08,31,13,30,1.60
2015,08,31,13,31,3.20
2015,08,31,13,32,4.80
2015,08,31,13,33,1.60
2015,08,31,13,34,1.60
2015,08,31,13,35,3.20
2015,08,31,13,37,3.20
2015,08,31,13,38,1.60
2015,08,31,13,39,1.60
2015,08,31,13,40,1.60
2015,08,31,13,41,4.80
2015,08,31,13,42,3.20
2015,08,31,13,43,3.20
2015,08,31,13,44,4.80
2015,08,31,13,45,6.40
2015,08,31,13,46,8.10
2015,08,31,13,47,4.80
2015,08,31,13,48,4.80
2015,08,31,13,49,8.10
2015,08,31,13,50,8.10
2015,08,31,13,51,8.10
2015,08,31,13,52,9.60
2015,08,31,13,53,11.30
2015,08,31,13,54,6.40
2015,08,31,13,55,9.60
2015,08,31,13,56,19.30
2015,08,31,13,57,9.60
2015,08,31,13,58,6.40
2015,08,31,13,59,3.20
2015,08,31,14,00,1.60
2015,08,31,14,01,8.10
2015,08,31,14,02,9.60
2015,08,31,14,03,9.60
2015,08,31,14,04,16.10
2015,08,31,14,05,9.60
2015,08,31,14,06,11.30
2015,08,31,14,07,12.90
2015,08,31,14,08,9.60
2015,08,31,14,09,12.90
2015,08,31,14,10,8.10
2015,08,31,14,11,11.30
2015,08,31,14,12,11.30
2015,08,31,14,13,9.60
2015,08,31,14,14,9.60
2015,08,31,14,15,12.90
2015,08,31,14,16,16.10
2015,08,31,14,17,9.60
2015,08,31,14,18,11.30
2015,08,31,14,19,9.60
2015,08,31,14,20,9.60
2015,08,31,14,21,8.10
2015,08,31,14,22,11.30
2015,08,31,14,23,8.10
2015,08,31,14,24,6.40
2015,08,31,14,25,6.40
2015,08,31,14,26,6.40
2015,08,31,14,27,8.10
2015,08,31,14,28,9.60
2015,08,31,14,29,8.10
2015,08,31,14,30,16.10
2015,08,31,14,31,11.30
2015,08,31,14,32,6.40
2015,08,31,14,33,14.50
2015,08,31,14,34,9.60
2015,08,31,14,35,4.80
2015,08,31,14,36,6.40
2015,08,31,14,37,11.30
2015,08,31,14,38,11.30
2015,08,31,14,39,8.10
2015,08,31,14,40,14.50
2015,08,31,14,41,12.90
2015,08,31,14,42,11.30
2015,08,31,14,43,12.90
2015,08,31,14,44,8.10
2015,08,31,14,45,8.10
2015,08,31,14,46,11.30
2015,08,31,14,47,8.10
2015,08,31,14,48,11.30
2015,08,31,14,49,9.60
2015,08,31,14,50,11.30
2015,08,31,14,51,6.40
2015,08,31,14,52,6.40
2015,08,31,14,53,9.60
2015,08,31,14,54,17.70
2015,08,31,14,55,4.80
2015,08,31,14,56,6.40
2015,08,31,14,57,11.30
2015,08,31,14,58,8.10
2015,08,31,14,59,8.10
2015,08,31,15,00,8.10
2015,08,31,15,01,8.10
2015,08,31,15,02,8.10
2015,08,31,15,03,6.40
2015,08,31,15,04,6.40
2015,08,31,15,05,8.10
2015,08,31,15,06,16.10
2015,08,31,15,07,8.10
2015,08,31,15,08,9.60
2015,08,31,15,09,11.30
2015,08,31,15,10,11.30
2015,08,31,15,11,11.30
2015,08,31,15,12,6.40
2015,08,31,15,13,9.60
2015,08,31,15,14,12.90
2015,08,31,15,15,9.60
2015,08,31,15,16,11.30
2015,08,31,15,17,12.90
2015,08,31,15,18,12.90
2015,08,31,15,19,9.60
2015,08,31,15,20,9.60
2015,08,31,15,21,11.30
2015,08,31,15,22,9.60
2015,08,31,15,23,12.90
2015,08,31,15,24,12.90
2015,08,31,15,25,17.70
2015,08,31,15,26,20.90
2015,08,31,15,27,16.10
2015,08,31,15,28,19.30
2015,08,31,15,29,22.50
2015,08,31,15,30,17.70
2015,08,31,15,31,17.70
2015,08,31,15,32,16.10
2015,08,31,15,33,11.30
2015,08,31,15,34,12.90
2015,08,31,15,35,11.30
2015,08,31,15,36,11.30
2015,08,31,15,37,14.50
2015,08,31,15,38,11.30
2015,08,31,15,39,6.40
2015,08,31,15,40,9.60
2015,08,31,15,41,11.30
2015,08,31,15,42,8.10
2015,08,31,15,43,9.60
2015,08,31,15,44,14.50
2015,08,31,15,45,6.40
2015,08,31,15,46,11.30
2015,08,31,15,47,16.10
2015,08,31,15,48,11.30
2015,08,31,15,49,9.60
2015,08,31,15,50,16.10
2015,08,31,15,51,14.50
2015,08,31,15,52,11.30
2015,08,31,15,53,16.10
2015,08,31,15,54,17.70
2015,08,31,15,55,11.30
2015,08,31,15,56,16.10
2015,08,31,15,57,9.60
2015,08,31,15,58,9.60
2015,08,31,15,59,16.10
2015,08,31,16,00,8.10
2015,08,31,16,01,17.70
2015,08,31,16,02,16.10
2015,08,31,16,03,9.60
2015,08,31,16,04,11.30
2015,08,31,16,05,12.90
2015,08,31,16,06,9.60
2015,08,31,16,07,8.10
2015,08,31,16,08,17.70
2015,08,31,16,09,8.10
2015,08,31,16,10,8.10
2015,08,31,16,11,11.30
2015,08,31,16,12,11.30
2015,08,31,16,13,12.90
2015,08,31,16,14,16.10
2015,08,31,16,15,14.50
2015,08,31,16,16,6.40
2015,08,31,16,17,16.10
2015,08,31,16,18,11.30
2015,08,31,16,19,16.10
2015,08,31,16,20,8.10
2015,08,31,16,21,9.60
2015,08,31,16,22,14.50
2015,08,31,16,23,14.50
2015,08,31,16,24,12.90
2015,08,31,16,25,11.30
2015,08,31,16,26,9.60
2015,08,31,16,27,16.10
2015,08,31,16,28,20.90
2015,08,31,16,29,11.30
2015,08,31,16,30,9.60
2015,08,31,16,31,9.60
2015,08,31,16,32,9.60
2015,08,31,16,33,16.10
2015,08,31,16,34,9.60
2015,08,31,16,35,9.60
2015,08,31,16,36,11.30
2015,08,31,16,37,9.60
2015,08,31,16,38,9.60
2015,08,31,16,39,11.30
2015,08,31,16,40,19.30
2015,08,31,16,41,17.70
2015,08,31,16,42,16.10
2015,08,31,16,43,9.60
2015,08,31,16,44,16.10
2015,08,31,16,45,11.30
2015,08,31,16,46,24.20
2015,08,31,16,47,14.50
2015,08,31,16,48,19.30
2015,08,31,16,49,16.10
2015,08,31,16,50,8.10
2015,08,31,16,51,8.10
2015,08,31,16,52,9.60
2015,08,31,16,53,11.30
2015,08,31,16,54,9.60
2015,08,31,16,55,9.60
2015,08,31,16,56,9.60
2015,08,31,16,57,17.70
2015,08,31,16,58,14.50
2015,08,31,16,59,17.70
2015,08,31,17,00,11.30
2015,08,31,17,01,9.60
2015,08,31,17,02,9.60
2015,08,31,17,03,16.10
2015,08,31,17,04,12.90
2015,08,31,17,05,14.50
2015,08,31,17,06,11.30
2015,08,31,17,07,16.10
2015,08,31,17,08,19.30
2015,08,31,17,09,14.50
2015,08,31,17,10,9.60
2015,08,31,17,11,17.70
2015,08,31,17,12,17.70
2015,08,31,17,13,11.30
2015,08,31,17,14,17.70
2015,08,31,17,15,14.50
2015,08,31,17,16,16.10
2015,08,31,17,17,14.50
2015,08,31,17,18,11.30
2015,08,31,17,19,9.60
2015,08,31,17,20,14.50
2015,08,31,17,21,9.60
2015,08,31,17,22,9.60
2015,08,31,17,23,9.60
2015,08,31,17,24,11.30
2015,08,31,17,25,16.10
2015,08,31,17,26,12.90
2015,08,31,17,27,8.10
2015,08,31,17,28,8.10
2015,08,31,17,29,8.10
2015,08,31,17,30,8.10
2015,08,31,17,31,6.40
2015,08,31,17,32,4.80
2015,08,31,17,33,6.40
2015,08,31,17,34,6.40
2015,08,31,17,35,6.40
2015,08,31,17,36,6.40
2015,08,31,17,37,4.80
2015,08,31,17,38,6.40
2015,08,31,17,39,6.40
2015,08,31,17,40,9.60
2015,08,31,17,41,6.40
2015,08,31,17,42,11.30
2015,08,31,17,43,9.60
2015,08,31,17,44,11.30
2015,08,31,17,45,11.30
2015,08,31,17,46,6.40
2015,08,31,17,47,11.30
2015,08,31,17,48,8.10
2015,08,31,17,49,3.20
2015,08,31,17,50,4.80
2015,08,31,17,51,4.80
2015,08,31,17,52,4.80
2015,08,31,17,53,8.10
2015,08,31,17,54,8.10
2015,08,31,17,55,6.40
2015,08,31,17,56,8.10
2015,08,31,17,57,11.30
2015,08,31,17,58,9.60
2015,08,31,17,59,9.60
2015,08,31,18,00,16.10
2015,08,31,18,01,24.20
2015,08,31,18,02,17.70
2015,08,31,18,03,11.30
2015,08,31,18,04,11.30
2015,08,31,18,05,16.10
2015,08,31,18,06,14.50
2015,08,31,18,07,11.30
2015,08,31,18,08,22.50
2015,08,31,18,09,17.70
2015,08,31,18,10,16.10
2015,08,31,18,11,16.10
2015,08,31,18,12,16.10
2015,08,31,18,13,22.50
2015,08,31,18,14,16.10
2015,08,31,18,15,17.70
2015,08,31,18,16,16.10
2015,08,31,18,17,22.50
2015,08,31,18,18,19.30
2015,08,31,18,19,17.70
2015,08,31,18,20,11.30
2015,08,31,18,21,20.90
2015,08,31,18,22,20.90
2015,08,31,18,23,24.20
2015,08,31,18,24,19.30
2015,08,31,18,25,16.10
2015,08,31,18,26,19.30
2015,08,31,18,27,17.70
2015,08,31,18,28,19.30
2015,08,31,18,29,16.10
2015,08,31,18,30,17.70
2015,08,31,18,31,16.10
2015,08,31,18,32,11.30
2015,08,31,18,33,16.10
2015,08,31,18,34,9.60
2015,08,31,18,35,8.10
2015,08,31,18,36,16.10
2015,08,31,18,37,17.70
2015,08,31,18,38,11.30
2015,08,31,18,39,8.10
2015,08,31,18,40,6.40
2015,08,31,18,41,3.20
2015,08,31,18,42,4.80
2015,08,31,18,43,16.10
2015,08,31,18,44,16.10
2015,08,31,18,45,11.30
2015,08,31,18,46,14.50
2015,08,31,18,47,9.60
2015,08,31,18,48,9.60
2015,08,31,18,49,12.90
2015,08,31,18,50,6.40
2015,08,31,18,51,6.40
2015,08,31,18,52,6.40
2015,08,31,18,53,8.10
2015,08,31,18,54,4.80
2015,08,31,18,55,8.10
2015,08,31,18,56,11.30
2015,08,31,18,57,8.10
2015,08,31,18,58,9.60
2015,08,31,18,59,14.50
2015,08,31,19,00,12.90
2015,08,31,19,01,9.60
2015,08,31,19,02,6.40
2015,08,31,19,03,11.30
2015,08,31,19,04,14.50
2015,08,31,19,05,4.80
2015,08,31,19,06,6.40
2015,08,31,19,07,9.60
2015,08,31,19,08,11.30
2015,08,31,19,09,14.50
2015,08,31,19,10,9.60
2015,08,31,19,11,14.50
2015,08,31,19,12,9.60
2015,08,31,19,13,11.30
2015,08,31,19,14,19.30
2015,08,31,19,15,14.50
2015,08,31,19,16,16.10
2015,08,31,19,17,16.10
2015,08,31,19,18,11.30
2015,08,31,19,19,8.10
2015,08,31,19,20,8.10
2015,08,31,19,21,9.60
2015,08,31,19,22,6.40
2015,08,31,19,23,11.30
2015,08,31,19,24,4.80
2015,08,31,19,25,11.30
2015,08,31,19,26,17.70
2015,08,31,19,27,19.30
2015,08,31,19,28,17.70
2015,08,31,19,29,22.50
2015,08,31,19,30,16.10
2015,08,31,19,31,19.30
2015,08,31,19,32,14.50
2015,08,31,19,33,20.90
2015,08,31,19,34,17.70
2015,08,31,19,35,14.50
2015,08,31,19,36,9.60
2015,08,31,19,37,11.30
2015,08,31,19,38,9.60
2015,08,31,19,39,6.40
2015,08,31,19,40,4.80
2015,08,31,19,41,9.60
2015,08,31,19,42,8.10
2015,08,31,19,43,11.30
2015,08,31,19,44,14.50
2015,08,31,19,45,11.30
2015,08,31,19,46,8.10
2015,08,31,19,47,8.10
2015,08,31,19,48,17.70
2015,08,31,19,49,17.70
2015,08,31,19,50,20.90
2015,08,31,19,51,19.30
2015,08,31,19,52,16.10
2015,08,31,19,53,9.60
2015,08,31,19,54,8.10
2015,08,31,19,55,4.80
2015,08,31,19,56,4.80
2015,08,31,19,57,11.30
2015,08,31,19,58,4.80
2015,08,31,19,59,4.80
2015,08,31,20,00,4.80
2015,08,31,20,01,6.40
2015,08,31,20,02,6.40
2015,08,31,20,03,9.60
2015,08,31,20,04,4.80
2015,08,31,20,05,9.60
2015,08,31,20,06,8.10
2015,08,31,20,07,8.10
2015,08,31,20,08,6.40
2015,08,31,20,09,6.40
2015,08,31,20,10,6.40
2015,08,31,20,11,3.20
2015,08,31,20,12,8.10
2015,08,31,20,13,8.10
2015,08,31,20,14,9.60
2015,08,31,20,15,9.60
2015,08,31,20,16,9.60
2015,08,31,20,17,8.10
2015,08,31,20,18,11.30
2015,08,31,20,19,16.10
2015,08,31,20,20,11.30
2015,08,31,20,21,9.60
2015,08,31,20,22,8.10
2015,08,31,20,23,6.40
2015,08,31,20,24,8.10
2015,08,31,20,25,8.10
2015,08,31,20,26,4.80
2015,08,31,20,27,6.40
2015,08,31,20,28,4.80
2015,08,31,20,29,6.40
2015,08,31,20,30,4.80
2015,08,31,20,31,4.80
2015,08,31,20,32,8.10
2015,08,31,20,33,3.20
2015,08,31,20,35,3.20
2015,08,31,20,36,1.60
2015,08,31,20,44,3.20
2015,08,31,20,45,4.80
2015,08,31,20,53,1.60
2015,08,31,20,54,3.20
2015,08,31,20,55,3.20
2015,08,31,20,56,1.60
2015,08,31,20,57,1.60
2015,08,31,21,00,1.60
2015,08,31,21,02,1.60
2015,08,31,21,03,1.60
2015,08,31,21,05,1.60
2015,08,31,21,16,1.60
2015,08,31,21,17,3.20
2015,08,31,21,18,3.20
2015,08,31,21,19,3.20
2015,08,31,21,20,1.60
2015,08,31,21,21,4.80
2015,08,31,21,22,4.80
2015,08,31,21,23,3.20
2015,08,31,21,24,4.80
2015,08,31,21,25,6.40
2015,08,31,21,26,4.80
2015,08,31,21,27,4.80
2015,08,31,21,28,1.60
2015,08,31,21,29,8.10
2015,08,31,21,30,11.30
2015,08,31,21,31,8.10
2015,08,31,21,32,6.40
2015,08,31,21,33,3.20
2015,08,31,21,34,1.60
2015,08,31,21,35,1.60
2015,08,31,21,40,1.60
2015,08,31,21,41,3.20
2015,08,31,21,42,1.60
2015,08,31,21,47,1.60
2015,08,31,21,49,1.60
2015,08,31,21,50,1.60
2015,08,31,22,03,1.60
2015,08,31,22,07,1.60
2015,08,31,22,08,1.60
2015,08,31,22,15,3.20
2015,08,31,22,16,4.80
2015,08,31,22,17,3.20
2015,08,31,22,18,1.60
2015,08,31,22,19,1.60
2015,08,31,22,20,1.60
2015,08,31,22,23,1.60
2015,08,31,22,26,1.60
2015,08,31,22,27,1.60
2015,08,31,22,29,1.60
2015,08,31,22,30,1.60
2015,08,31,22,31,3.20
2015,08,31,22,32,3.20
2015,08,31,22,34,1.60
2015,08,31,22,35,1.60
2015,08,31,22,36,1.60
2015,08,31,22,40,1.60
2015,08,31,22,41,1.60
2015,08,31,22,42,3.20
2015,08,31,22,43,1.60
2015,08,31,22,47,1.60
2015,08,31,22,49,4.80
2015,08,31,22,50,4.80
2015,08,31,22,51,3.20
2015,08,31,22,53,3.20
2015,08,31,22,54,3.20
2015,08,31,22,55,3.20
2015,08,31,22,56,4.80
2015,08,31,22,57,3.20
2015,08,31,22,58,4.80
2015,08,31,22,59,8.10
2015,08,31,23,00,6.40
2015,08,31,23,01,1.60
2015,08,31,23,03,1.60
2015,08,31,23,06,4.80
2015,08,31,23,07,4.80
2015,08,31,23,08,4.80
2015,08,31,23,09,4.80
2015,08,31,23,10,4.80
2015,08,31,23,11,4.80
2015,08,31,23,12,6.40
2015,08,31,23,13,6.40
2015,08,31,23,14,4.80
2015,08,31,23,15,6.40
2015,08,31,23,16,6.40
2015,08,31,23,17,9.60
2015,08,31,23,18,6.40
2015,08,31,23,19,4.80
2015,08,31,23,21,1.60
2015,08,31,23,23,1.60
2015,08,31,23,24,3.20
2015,08,31,23,25,3.20
2015,08,31,23,26,3.20
2015,08,31,23,27,3.20
2015,08,31,23,28,4.80
2015,08,31,23,29,3.20
2015,08,31,23,30,3.20
2015,08,31,23,31,3.20
2015,08,31,23,32,1.60
2015,08,31,23,35,4.80
2015,08,31,23,36,4.80
2015,08,31,23,38,1.60
2015,08,31,23,41,1.60
2015,08,31,23,42,3.20
2015,08,31,23,43,6.40
2015,08,31,23,44,4.80
2015,08,31,23,47,1.60
2015,08,31,23,49,1.60
2015,08,31,23,52,1.60
2015,08,31,23,54,3.20
2015,08,31,23,55,3.20
2015,08,31,23,56,3.20
2015,08,31,23,57,3.20
2015,08,31,23,58,4.80
2015,08,31,23,59,6.40
